{"data":{"norad_id":27718,"epoch":"2026-05-25T05:02:38.473728Z","epoch_age_seconds":56868,"freshness":"FRESH","line1":"1 27718U 03014A   26145.21016752 -.00000224  00000+0  00000+0 0  9992","line2":"2 27718   4.6466  76.0274 0002914 355.8291  34.1297  1.00269898 45073","mean_motion":1.00269898,"eccentricity":0.0002914,"inclination_deg":4.6466,"raan_deg":76.0274,"arg_perigee_deg":355.8291,"mean_anomaly_deg":34.1297,"bstar":0,"rev_number":4507,"period_min":1436.1239302348,"perigee_km":35774.837007042,"apogee_km":35799.410921132,"semimajor_km":42165.260964087,"source":"CELESTRAK","updated_at":"2026-05-25T13:38:13.815286Z"}}